Location: *
(6.0000°S, 32.3997°W)
Time: 16:26:29
(UTC+00:00)

Cosmos 2278 Rocket - Pass Details

Date: 01 April 2020
Orbit: 839 x 847 km, 71.0° (Epoch: 27 May)

Event Time Altitude Azimuth Distance (km) Brightness Sun altitude
Rises 22:15:42 0° 325° (NW) 3,392 5.8 -30.9°
Reaches altitude 10° 22:18:23 10° 315° (NW) 2,461 5.1 -31.6°
Maximum altitude 22:23:19 31° 253° (WSW) 1,436 3.8 -32.8°
Enters shadow 22:27:38 13° 196° (SSW) 2,261 4.5 -33.9°
